Location: Artiguedieu
(43.5000°N, 0.5454°E)
Time: 17:22:50
(UTC+00:00)

Transit 2A Rocket - Pass Details

Date: 05 August 2021
Orbit: 586 x 916 km, 66.7° (Epoch: 21 September)

Event Time Altitude Azimuth Distance (km) Brightness Sun altitude
Rises 12:39:56 0° 199° (SSW) 2,829 8.4 62.2°
Reaches altitude 10° 12:42:07 10° 195° (SSW) 1,956 7.7 62.1°
Maximum altitude 12:46:25 57° 117° (ESE) 750 5.9 61.8°
Drops below altitude 10° 12:51:06 10° 38° (NE) 2,124 7.1 61.5°
Sets 12:53:33 0° 35° (NE) 3,098 7.9 61.3°
